Weather History for KVAY - May, 2014

Change the Weather History Date:

Monday, May 26, 2014

  Actual Average (KWRI) Record (KWRI)
Temperature  
Mean Temperature 73 °F -  
Max Temperature 86 °F 71 °F 88 °F (2007)
Min Temperature 62 °F 51 °F 48 °F (2008)
Cooling Degree Days 8    
Growing Degree Days 23 (Base 50)    
Moisture  
Dew Point 54 °F    
Average Humidity 53    
Maximum Humidity 80    
Minimum Humidity 30    
Precipitation  
Precipitation 0.00 in - - ()
Sea Level Pressure  
Sea Level Pressure 30.03 in    
Wind  
Wind Speed 7 mph (WSW)    
Max Wind Speed 12 mph    
Max Gust Speed 21 mph    
Visibility 10 miles    
Events      
Averages and records for this station are not official NWS values.
T = Trace of Precipitation, MM = Missing Value Source: NWS Daily Summary

Daily Weather History Graph

Daily Weather History Graph

Search for Another Location

Airport or City:

Trip Planner

Search our weather history database for the weather conditions in past years. The results will help you decide how hot, cold, wet, or windy it might be!

Date:

Astronomy

May. 26, 2014 Rise Set
Actual Time 5:35 AM EDT 8:17 PM EDT
Civil Twilight 5:04 AM EDT 8:49 PM EDT
Nautical Twilight 4:24 AM EDT 9:28 PM EDT
Astronomical Twilight 3:40 AM EDT 10:13 PM EDT
Moon 4:16 AM EDT (5/26) 6:17 PM EDT (5/26)
Length of Visible Light 15h 44m
Length of Day
14h 41m
Waning Crescent, 5% of the Moon is Illuminated
May 26
Waning Crescent
May 28
New
Jun 5
First Quarter
Jun 13
Full
Jun 19
Last Quarter

Hourly Weather History & Observations

Time (EDT) Temp. Heat Index Dew Point Humidity Pressure Visibility Wind Dir Wind Speed Gust Speed Precip Events Conditions
12:54 AM 66.0 °F - 48.9 °F 54% 30.08 in 10.0 mi SW 5.8 mph - N/A   Clear
1:54 AM 64.9 °F - 51.1 °F 61% 30.08 in 10.0 mi SW 6.9 mph - N/A   Clear
2:54 AM 64.0 °F - 53.1 °F 67% 30.08 in 10.0 mi SW 6.9 mph - N/A   Clear
3:54 AM 63.0 °F - 54.0 °F 72% 30.08 in 10.0 mi SW 6.9 mph - N/A   Clear
4:54 AM 63.0 °F - 55.0 °F 75% 30.09 in 10.0 mi SW 6.9 mph - N/A   Clear
5:54 AM 62.1 °F - 55.9 °F 80% 30.09 in 10.0 mi SW 6.9 mph - N/A   Clear
6:18 AM 62.1 °F - 55.9 °F 80% 30.10 in 10.0 mi SW 5.8 mph - N/A   Partly Cloudy
6:54 AM 63.0 °F - 55.9 °F 78% 30.10 in 10.0 mi SW 8.1 mph - N/A   Clear
7:54 AM 66.9 °F - 57.0 °F 70% 30.11 in 10.0 mi WSW 9.2 mph - N/A   Clear
8:54 AM 72.0 °F - 55.9 °F 57% 30.10 in 10.0 mi WSW 10.4 mph - N/A   Clear
9:54 AM 75.9 °F - 55.0 °F 48% 30.09 in 10.0 mi WSW 9.2 mph - N/A   Clear
10:54 AM 79.0 °F - 54.0 °F 42% 30.08 in 10.0 mi West 10.4 mph 18.4 mph N/A   Clear
11:54 AM 82.0 °F 81.2 °F 53.1 °F 37% 30.06 in 10.0 mi WSW 11.5 mph 20.7 mph N/A   Clear
12:54 PM 82.9 °F - 52.0 °F 34% 30.03 in 10.0 mi West 8.1 mph - N/A   Clear
1:54 PM 84.0 °F - 51.1 °F 32% 30.00 in 10.0 mi West 11.5 mph 18.4 mph N/A   Clear
2:54 PM 84.9 °F - 50.0 °F 30% 29.99 in 10.0 mi WSW 11.5 mph 20.7 mph N/A   Clear
3:54 PM 84.9 °F - 50.0 °F 30% 29.97 in 10.0 mi WSW 8.1 mph - N/A   Clear
4:54 PM 84.0 °F - 52.0 °F 33% 29.96 in 10.0 mi West 11.5 mph - N/A   Clear
5:54 PM 82.9 °F 82.1 °F 55.9 °F 39% 29.94 in 10.0 mi SW 8.1 mph - N/A   Clear
6:54 PM 82.0 °F 81.7 °F 57.0 °F 42% 29.94 in 10.0 mi WSW 11.5 mph 17.3 mph N/A   Clear
7:54 PM 80.1 °F 80.1 °F 55.0 °F 42% 29.94 in 10.0 mi SW 5.8 mph - N/A   Clear
8:54 PM 75.0 °F - 55.0 °F 50% 29.94 in 10.0 mi SSW 3.5 mph - N/A   Clear
9:54 PM 73.0 °F - 55.9 °F 55% 29.96 in 10.0 mi SW 4.6 mph - N/A   Clear
10:54 PM 72.0 °F - 55.0 °F 55% 29.95 in 10.0 mi SW 3.5 mph - N/A   Clear
11:54 PM 71.1 °F - 54.0 °F 55% 29.95 in 10.0 mi SW 4.6 mph - N/A   Clear